Regional Weather Roundup
Issued by NWS Upton, NY

Current Version | Previous Version | Graphics & Text | Print | Product List | Glossary Off
Versions: 1 2 3 4 5 6 7 8 9 10 11 12 13 14 15 16 17 18 19 20 21 22 23 24 25 26 27

000
ASUS41 KOKX 182109
RWROKX

REGIONAL WEATHER ROUNDUP
NATIONAL WEATHER SERVICE NEW YORK NY
500 PM EDT MON SEP 18 2017

NOTE: "FAIR" INDICATES FEW OR NO CLOUDS BELOW 12,000 FEET WITH NO
SIGNIFICANT WEATHER AND/OR OBSTRUCTIONS TO VISIBILITY.

NYZ071-072-176-178-NJZ106-104-182200-
NEW YORK CITY METRO AREA

CITY           SKY/WX    TMP DP  RH WIND       PRES   REMARKS
Central Park   CLOUDY    72  66  81 VRB6      30.12S
Bronx Bot Gard   N/A     72  64  78 N3        30.11S
LaGuardia APRT CLOUDY    73  67  81 E9        30.08F
Kennedy INTL   CLOUDY    76  67  73 E12       30.09F
Breezy Point     N/A     72 N/A N/A E6          N/A
Newark/Liberty CLOUDY    73  66  78 NE8       30.08F
Teterboro      CLOUDY    74  65  73 E8        30.08S
$$

NYZ177-179-078>081-182200-
LONG ISLAND NEW YORK

CITY           SKY/WX    TMP DP  RH WIND       PRES   REMARKS
Jones Beach      N/A     72 N/A N/A NE13        N/A
Matinecock PT    N/A     72 N/A N/A E14         N/A
Farmingdale    CLOUDY    71  67  87 NE7       30.09S
MacArthur/ISP  CLOUDY    72  68  87 E8        30.09S
Shirley        CLOUDY    74  68  81 VRB6      30.09F
Mt Sinai Harb    N/A     72 N/A N/A E8          N/A
Westhampton    CLOUDY    73  66  78 NE12      30.11S
East Hampton   CLOUDY    71  66  85 NE8       30.09S
Montauk          N/A     71  68  90 NE9       30.11S
$$

NYZ052-065-067-182200-
HUDSON VALLEY

CITY           SKY/WX    TMP DP  RH WIND       PRES   REMARKS
White Plains   PTSUNNY   71  65  81 E6        30.10F
Larchmont Harb   N/A     70 N/A N/A NE14        N/A
Croton On Huds   N/A     75 N/A N/A E3          N/A
Newburgh       MOSUNNY   77  64  65 VRB6      30.11R
Montgomery     PTSUNNY   78  64  61 E6        30.08F
Poughkeepsie   MOSUNNY   77  63  61 E7        30.08S
Albany         PTSUNNY   79  65  62 E7        30.08R
$$

NJZ001-105-106-008-010-013-015-019>022-104-182200-
NEW JERSEY

CITY           SKY/WX    TMP DP  RH WIND       PRES   REMARKS
Newark/Liberty CLOUDY    73  66  78 NE8       30.08F
Teterboro      CLOUDY    74  65  73 E8        30.08S
Caldwell       CLOUDY    74  68  81 SE9       30.09S
Somerville     NOT AVBL
Linden         CLOUDY    73  65  75 E5        30.09S
Perth Amboy      N/A     72 N/A N/A NE8         N/A
Sussex         SUNNY     77  64  64 E5        30.08F
Andover          N/A     76  65  68 VRB3      30.10S
Trenton        PTSUNNY   76  67  73 NE7       30.07S
Millville      MOSUNNY   79  68  69 NE17      30.03S
Atlantic City  CLOUDY    73  69  87 NE8       30.04S
Wrightstown    PTSUNNY   74  68  81 NE14      30.04F
Toms River     CLOUDY    72  68  87 NE14G21   30.07S
Belmar         CLOUDY    71  67  87 NE10      30.09S
$$

PAZ047>061-062-071-182200-
EASTERN PENNSYLVANIA

CITY           SKY/WX    TMP DP  RH WIND       PRES   REMARKS
Philadelphia   MOSUNNY   79  65  62 E12       30.05F
Allentown      CLOUDY    75  64  68 SE3       30.09S
Scranton       MOSUNNY   81  60  48 E6        30.08S
$$

CTZ002-004>006-009-010-012-RIZ004-006-007-MAZ004-011-015-182200-
SOUTHERN NEW ENGLAND
 IN CT

CITY           SKY/WX    TMP DP  RH WIND       PRES   REMARKS
Bradley INTL   CLOUDY    74  64  71 N6        30.12F
Hartford       CLOUDY    75  65  70 VRB3      30.11S
Danbury        CLOUDY    75  65  70 E7        30.11F
Wtrbury/Oxford CLOUDY    71  65  81 E3        30.13S
Norwalk Harbor   N/A     70 N/A N/A E15         N/A
Bridgeport     CLOUDY    73  66  78 E13       30.10S
Meriden        CLOUDY    73  64  73 VRB3      30.11S
New Haven      CLOUDY    73  66  78 E8        30.11S
Chester        CLOUDY    72  66  83 CALM      30.12S
Groton         CLOUDY    73  67  81 NE8       30.10S
Wilimantic     CLOUDY    73  66  78 E6        30.13R

 IN RI

CITY           SKY/WX    TMP DP  RH WIND       PRES   REMARKS
Providence     CLOUDY    71  67  87 NE7       30.13F
Block Island   CLOUDY    68  67  96 NE9       30.11S
Westerly       CLOUDY    73  68  84 N5        30.12S
 IN MA

CITY           SKY/WX    TMP DP  RH WIND       PRES   REMARKS
Boston         CLOUDY    66  64  93 E6        30.15F FOG
Worcester      CLOUDY    67  62  84 E7        30.17R
Westfield      PTSUNNY   73  63  70 N7        30.13F
Provincetown   FOG       66  64  93 E8        30.15S VSB 1
Nantucket      FOG       65  65 100 NE14      30.11S VSB 1/4
$$

ANZ330-335-338-340-345-350-353-355-182200-
COASTAL MARINE OBSERVATIONS


STATION/POSITION TIME  SKY/WX   TEMP    WIND        PRES    VSBY  WAVE
                                AIR SEA DIR/SP/G                  HT/PER
                 (UTC)          (F)     (DEG/KT/KT) (MB)    (MI)  (FT/S)
NY HARB ENTRANCE 1950            71 71   50/ 14/ 16 1017.7          5/11
20 S FIRE ISLAND 1950            69 71   50/ 19/ 23 1017.7          6/14
GREAT SOUTH BAY  2030            72 74   50/ 10/ 14   N/A
23 SSW MONTAUK P 1950            68 69              1018.6          7/12
15 E BARNEGAT LI 2030               72                N/A           7/ 9
HUDSON CANYON    1950            69 69   60/ 17/ 21 1015.6          9/14
KINGS POINT      NOT AVBL
EXECUTION ROCKS  2045            73      90/ 10/ 14   N/A
WESTERN LI SOUND NOT AVBL
CENTRAL LI SOUND NOT AVBL
EASTERN LI SOUND NOT AVBL
ROBBINS REEF     2048            71      40/ 10/ 11 1019.3
$$


>>>>>>>>>>>>>>>>>>>>>>>>>>>> KEY <<<<<<<<<<<<<<<<<<<<<<<<<<<
>                                                          <
>     SKY/WX - Sky Condition/Present Weather               <
>     TMP    - Temperature in Fahrenheit                   <
>     DP     - Dew Point in Fahrenheit                     <
>     RH     - Relative Humidity in Percent                <
>     WIND   - Direction (from) and Speed in MPH           <
>     PRES   - Mean Sea Level Pressure (inches of Hg)      <
>     WCI    - Wind Chill Index                            <
>     VSB    - VISIBILITY IN MILES                         <
>     HX     - HEAT INDEX                                  <
>     TC     - TEMPERATURE IN CELSIUS                      <
>     VRB    - VARIABLE WIND DIRECTION                     <
>                                                          <
>>>>>>>>>>>>>>>>>>>>>>>>>>>> KEY <<<<<<<<<<<<<<<<<<<<<<<<<<<




USA.gov is the U.S. government's official web portal to all federal, state and local government web resources and services.